Location: Poprad
(49.0500°N, 20.3000°E)
Time: 19:47:18
(UTC+02:00)

ITUPSAT 1 - Pass Details

Date: 30 April 2024
Orbit: 694 x 707 km, 98.5° (Epoch: 20 May)

Event Time Altitude Azimuth Distance (km) Brightness Sun altitude
Rises 23:48:29 0° 6° (N) 3,086 ? -25.0°
Reaches altitude 10° 23:50:56 10° 357° (N) 2,163 ? -25.0°
Maximum altitude 23:55:04 31° 296° (WNW) 1,211 ? -25.2°
Enters shadow 23:56:57 23° 256° (WSW) 1,457 ? -25.2°
